This demonstration page uses our WeatherBlox Daily Observations layout. Learn more.

Left ArrowRight Arrow

Hourly Observations for August 18, 2015

Temp ( °F °C ) Dew Point ( °F °C ) Humidity (%) Winds ( mph kmh ) Pressure ( in mb ) Visibility ( mi km ) Precip ( " mm )
12:53 am 00:53 Mostly Cloudy 68 20 67 19.4 96 96 N N/A 30.03 1017 8 13 N/A
1:53 am 01:53 Mostly Cloudy with Mist and Fog 68 20 66 18.9 93 93 N N/A 30.02 1017 6 10 N/A
2:53 am 02:53 Mostly Cloudy with Mist and Fog 67 19.4 66 18.9 97 97 N N/A 30.00 1016 5 8 N/A
3:53 am 03:53 Clear with Mist and Fog 66 18.9 64 17.8 93 93 N N/A 29.99 1016 3 4 N/A
4:02 am 04:02 Clear with Mist and Fog 66 18.9 64 17.8 93 93 N N/A 30.00 1016 6 10 N/A
4:30 am 04:30 Mostly Clear with Mist and Fog 65 18.3 64 17.8 97 97 N N/A 30.00 1016 2 3 N/A
4:36 am 04:36 Mostly Cloudy with Mist and Fog 65 18.3 64 17.8 97 97 N N/A 30.00 1016 1 2 N/A
4:41 am 04:41 Partly Cloudy with Mist and Fog 65 18.3 64 17.8 97 97 N N/A 30.00 1016 3 4 N/A
4:48 am 04:48 Mostly Cloudy with Mist and Fog 64 18 63 17 94 94 N N/A 30.00 1016 1 2 N/A
4:53 am 04:53 Mostly Cloudy with Fog 64 17.8 63 17.2 96 96 N N/A 29.98 1015 0 0 N/A
5:12 am 05:12 Mostly Cloudy with Mist and Fog 65 18.3 64 17.8 97 97 N N/A 30.00 1016 1 2 N/A
5:22 am 05:22 Mostly Cloudy with Fog 64 17.8 63 17.2 96 96 N N/A 30.00 1016 1 1 N/A
5:53 am 05:53 Mostly Cloudy with Fog 64 17.8 63 17.2 96 96 N N/A 29.98 1015 1 1 N/A
5:59 am 05:59 Mostly Cloudy with Mist and Fog 64 17.8 64 17.8 100 100 N N/A 30.00 1016 2 3 N/A
6:02 am 06:02 Mostly Cloudy with Mist and Fog 64 17.8 64 17.8 100 100 N N/A 30.00 1016 1 1 N/A
6:47 am 06:47 Mostly Clear with Mist and Fog 64 18 63 17 94 94 N N/A 30.00 1016 1 2 N/A
6:49 am 06:49 Partly Cloudy with Mist and Fog 64 18 63 17 94 94 N N/A 30.00 1016 2 3 N/A
6:53 am 06:53 Partly Cloudy with Mist and Fog 64 17.8 63 17.2 96 96 N N/A 29.98 1015 3 4 N/A
6:56 am 06:56 Mostly Cloudy with Mist and Fog 64 17.8 63 17.2 96 96 N N/A 30.00 1016 3 5 N/A
7:03 am 07:03 Mostly Cloudy with Mist and Fog 65 18.3 63 17.2 93 93 N N/A 30.00 1016 2 3 N/A
7:13 am 07:13 Cloudy with Mist and Fog 65 18.3 63 17.2 93 93 N N/A 30.00 1016 3 5 N/A
7:16 am 07:16 Mostly Cloudy with Mist and Fog 65 18.3 64 17.8 97 97 N N/A 30.00 1016 1 1 N/A
7:47 am 07:47 Cloudy with Mist and Fog 66 19 66 19 100 100 N N/A 30.00 1016 1 2 N/A
7:53 am 07:53 Mostly Cloudy with Mist and Fog 68 20 67 19.4 96 96 N N/A 30.00 1016 3 5 N/A
8:05 am 08:05 Partly Cloudy with Mist and Fog 70 21.1 69 20.6 97 97 N N/A 30.00 1016 4 6 N/A
8:12 am 08:12 Mostly Cloudy with Mist and Fog 71 21.7 69 20.6 94 94 N N/A 30.00 1016 4 6 N/A
8:20 am 08:20 Mostly Cloudy with Mist and Fog 71 21.7 69 20.6 94 94 N N/A 30.03 1017 3 5 N/A
8:53 am 08:53 Cloudy with Mist and Fog 72 22.2 70 21.1 94 94 N N/A 30.01 1016 3 4 N/A
9:06 am 09:06 Cloudy with Mist and Fog 72 22.2 70 21.1 94 94 N N/A 30.03 1017 3 5 N/A
9:35 am 09:35 Cloudy with Mist and Fog 73 22.8 69 20.6 87 87 N N/A 30.00 1016 5 8 N/A
9:53 am 09:53 Mostly Cloudy with Mist and Fog 74 23.3 70 21.1 88 88 N N/A 29.98 1015 5 8 N/A
10:04 am 10:04 Hazy 75 23.9 70 21.1 84 84 N N/A 30.00 1016 5 8 N/A
10:23 am 10:23 Mostly Cloudy with Haze 76 24.4 69 20.6 79 79 N N/A 30.00 1016 6 10 N/A
10:53 am 10:53 Hazy 76 24.4 70 21.1 82 82 ESE 3 6 29.96 1015 5 8 N/A
11:15 am 11:15 Mostly Cloudy with Haze 78 25.6 70 21.1 76 76 E 7 11 29.97 1015 5 8 N/A
11:53 am 11:53 Mostly Cloudy 80 26.7 69 20.6 69 69 ESE 6 9 29.96 1014 8 13 N/A
12:10 pm 12:10 Mostly Cloudy 80 26.7 68 20 67 67 VRB 5 7 29.94 1014 9 14 N/A
12:26 pm 12:26 Partly Cloudy 82 27.8 68 20 63 63 N N/A 29.94 1014 10 16 N/A
12:53 pm 12:53 Partly Cloudy 81 27.2 68 20 65 65 VRB 6 9 29.93 1014 10 16 N/A
1:53 pm 13:53 Mostly Cloudy 83 28.3 69 20.6 63 63 VRB 5 7 29.92 1013 10 16 N/A
2:53 pm 14:53 Mostly Cloudy 83 28.3 68 20 61 61 SSE 3 6 29.90 1013 10 16 N/A
3:53 pm 15:53 Mostly Cloudy 85 29.4 68 20 57 57 VRB 5 7 29.87 1012 10 16 N/A
4:53 pm 16:53 Partly Cloudy 85 29.4 68 20 57 57 VRB 3 6 29.86 1011 10 16 N/A
5:53 pm 17:53 Sunny 82 27.8 72 22.2 72 72 N N/A 29.84 1011 10 16 N/A
6:53 pm 18:53 Cloudy 85 29.4 68 20 57 57 VRB 5 7 29.82 1010 10 16 N/A
7:53 pm 19:53 Mostly Cloudy 81 27.2 68 20 65 65 N N/A 29.83 1010 10 16 N/A
8:53 pm 20:53 Cloudy 77 25 70 21.1 79 79 N N/A 29.85 1011 10 16 N/A
9:53 pm 21:53 Clear 73 22.8 69 20.6 87 87 N N/A 29.86 1011 10 16 N/A
10:53 pm 22:53 Clear 71 21.7 68 20 90 90 N N/A 29.86 1011 10 16 N/A
11:53 pm 23:53 Clear 70 21.1 68 20 93 93 N N/A 29.87 1012 10 16 N/A

Powered by AerisWeather